Williamsport, PA

7:41 PM EST on December 12, 2017 (GMT -0500)
Williamsport Rgnl

Weather History for KIPT - January, 2014

Change the Weather History Date:

Friday, January 3, 2014

  Actual Average Record
Temperature  
Mean Temperature 8 °F 27 °F  
Max Temperature 16 °F 34 °F 60 °F (2000)
Min Temperature 0 °F 20 °F -8 °F (1918)
Degree Days  
Heating Degree Days 57 38  
Month to date heating degree days 146 114  
Since 1 July heating degree days 2462 2407  
Cooling Degree Days 0 0  
Month to date cooling degree days 0 0  
Year to date cooling degree days 0 0  
Moisture  
Dew Point -3 °F    
Average Humidity 58    
Maximum Humidity 79    
Minimum Humidity 36    
Precipitation  
Precipitation 0.02 in 0.08 in 1.08 in (1911)
Month to date precipitation 0.26 0.24  
Year to date precipitation 0.26 0.24  
Snow  
Snow 0.20 in 0.20 in 6.70 in (1919)
Month to date snowfall 3.6 0.8  
Since 1 July snowfall 19.9 9.5  
Snow Depth 4.00 in    
Sea Level Pressure  
Sea Level Pressure 30.17 in    
Wind  
Wind Speed 8 mph (NW)    
Max Wind Speed 20 mph    
Max Gust Speed 26 mph    
Visibility 8 miles    
Events Snow    
T = Trace of Precipitation, MM = Missing Value Source: NWS Daily Summary

Daily Weather History Graph

Daily Weather History Graph

Search for Another Location

Airport or City:

Trip Planner

Search our weather history database for the weather conditions in past years. The results will help you decide how hot, cold, wet, or windy it might be!

Date:

Astronomy

Jan. 03, 2014 Rise Set
Actual Time 7:33 AM EST 4:51 PM EST
Civil Twilight 7:02 AM EST 5:22 PM EST
Nautical Twilight 6:27 AM EST 5:56 PM EST
Astronomical Twilight 5:54 AM EST 6:30 PM EST
Moon 8:56 AM EST (1/3) 7:59 PM EST (1/3)
Length of Visible Light 10h 19m
Length of Day
9h 17m
Waxing Crescent, 8% of the Moon is Illuminated
Jan 3
Waxing Crescent
Jan 7
First Quarter
Jan 15
Full
Jan 24
Last Quarter
Jan 30
New

Hourly Weather History & Observations

Time (EST) Temp. Windchill Dew Point Humidity Pressure Visibility Wind Dir Wind Speed Gust Speed Precip Events Conditions
12:21 AM 12.2 °F -0.2 °F 6.8 °F 79% 29.83 in 2.0 mi WNW 9.2 mph - 0.00 in Snow Light Snow
12:36 AM 12.2 °F -1.0 °F 5.0 °F 73% 29.82 in 3.0 mi NW 10.4 mph - 0.00 in Snow Light Snow
12:54 AM 12.0 °F -2.0 °F 3.9 °F 70% 29.86 in 5.0 mi WNW 11.5 mph - 0.00 in Snow Light Snow
1:01 AM 12.2 °F -1.8 °F 3.2 °F 67% 29.82 in 2.5 mi NW 11.5 mph - 0.00 in Snow Light Snow
1:11 AM 12.2 °F 1.7 °F 5.0 °F 73% 29.83 in 1.5 mi NW 6.9 mph 18.4 mph 0.00 in Snow Light Snow
1:54 AM 10.9 °F -3.4 °F 3.0 °F 70% 29.88 in 2.5 mi NNW 11.5 mph - 0.01 in Snow Light Snow
2:29 AM 10.4 °F -3.3 °F 3.2 °F 73% 29.88 in 3.0 mi WNW 10.4 mph - 0.01 in Snow Light Snow
2:54 AM 10.9 °F -1.8 °F 1.0 °F 64% 29.92 in 4.0 mi WNW 9.2 mph 21.9 mph 0.01 in Snow Light Snow
3:44 AM 10.4 °F -0.4 °F 1.4 °F 67% 29.93 in 2.5 mi NW 6.9 mph 18.4 mph 0.00 in Snow Light Snow
3:54 AM 10.0 °F -5.9 °F -0.0 °F 64% 29.96 in 7.0 mi NW 13.8 mph 19.6 mph 0.00 in Snow Light Snow
4:54 AM 9.0 °F -4.2 °F -2.9 °F 59% 30.00 in 10.0 mi NW 9.2 mph 21.9 mph 0.00 in   Mostly Cloudy
5:54 AM 7.0 °F -11.0 °F -4.0 °F 61% 30.05 in 10.0 mi WNW 16.1 mph 23.0 mph N/A   Mostly Cloudy
6:54 AM 6.1 °F -11.6 °F -5.1 °F 60% 30.12 in 10.0 mi WNW 15.0 mph 21.9 mph N/A   Mostly Cloudy
7:54 AM 6.1 °F -7.8 °F -5.1 °F 60% 30.18 in 10.0 mi West 9.2 mph - N/A   Overcast
8:54 AM 8.1 °F -7.7 °F -4.0 °F 58% 30.22 in 10.0 mi West 12.7 mph - N/A   Overcast
9:54 AM 9.0 °F -9.0 °F -4.0 °F 56% 30.27 in 10.0 mi WNW 17.3 mph 25.3 mph N/A   Partly Cloudy
10:54 AM 10.0 °F -6.5 °F -5.1 °F 51% 30.28 in 10.0 mi NW 15.0 mph 25.3 mph N/A   Clear
11:54 AM 12.0 °F -1.3 °F -4.0 °F 49% 30.28 in 10.0 mi WNW 10.4 mph - N/A   Clear
12:54 PM 12.9 °F -1.6 °F -7.1 °F 41% 30.30 in 10.0 mi NW 12.7 mph 20.7 mph N/A   Clear
1:54 PM 15.1 °F 2.5 °F -7.1 °F 37% 30.32 in 10.0 mi NNW 10.4 mph - N/A   Clear
2:54 PM 16.0 °F 5.3 °F -8.0 °F 34% 30.32 in 10.0 mi NNW 8.1 mph - N/A   Clear
3:54 PM 16.0 °F 6.3 °F -8.0 °F 34% 30.35 in 10.0 mi NNW 6.9 mph - N/A   Clear
4:54 PM 14.0 °F 8.2 °F -9.9 °F 34% 30.39 in 10.0 mi North 3.5 mph - N/A   Clear
5:54 PM 9.0 °F - -9.0 °F 44% 30.42 in 10.0 mi Calm Calm - N/A   Clear
6:54 PM 10.0 °F - -7.1 °F 46% 30.45 in 10.0 mi Calm Calm - N/A   Clear
7:54 PM 6.1 °F - -5.1 °F 60% 30.47 in 10.0 mi Calm Calm - N/A   Clear
8:54 PM 5.0 °F - -2.9 °F 70% 30.48 in 10.0 mi Calm Calm - N/A   Clear
9:54 PM 1.9 °F - -4.0 °F 76% 30.48 in 10.0 mi Calm Calm - N/A   Clear
10:54 PM 1.9 °F - -5.1 °F 72% 30.48 in 10.0 mi Calm Calm - N/A   Clear
11:54 PM -0.0 °F - -6.0 °F 76% 30.47 in 10.0 mi Calm Calm - N/A   Clear